Regional Weather Roundup
Issued by NWS Bismarck, ND

Home | Current Version | Previous Version | Text Only | Print | Product List | Glossary On
Versions: 1 2 3 4 5 6 7 8 9 10 11 12 13 14 15 16 17 18 19 20 21 22 23 24 25 26 27 28 29 30 31 32 33 34 35 36 37 38 39 40 41 42 43 44 45 46 47 48 49 50
000
ASUS43 KBIS 311410
RWRBIS

NWR BROADCAST TEXT
NATIONAL WEATHER SERVICE BISMARCK ND
900 AM CDT FRI JUL 31 2015

NOTE: "FAIR" INDICATES FEW OR NO CLOUDS BELOW 12,000 FEET WITH NO
SIGNIFICANT WEATHER AND/OR OBSTRUCTIONS TO VISIBILITY.


CITY           SKY/WX    TMP DP  RH WIND       PRES   REMARKS
WILLISTON      SUNNY     65  52  62 SW7       30.16S
MINOT          SUNNY     67  52  58 W7        30.14S
MINOT AFB      SUNNY     70  55  59 W5        30.13S
BISMARCK       MOSUNNY   64  53  67 SW5       30.17F
DICKINSON      SUNNY     71  52  50 W10       30.18S
GARRISON         N/A     66  57  72 CALM      30.15S
HETTINGER ARPT SUNNY     65  52  62 CALM      30.23S
JAMESTOWN      SUNNY     67  54  63 W8        30.14S
BEACH          FAIR      68  50  52 SW5       30.22S
CROSBY         FAIR      64  57  77 NW7       30.17R
HARVEY         FAIR      66  55  68 W7        30.15S
HAZEN          FAIR      61  54  77 CALM      30.16F
LINTON         FAIR      66  57  72 CALM      30.18S
MANDAN         FAIR      66  54  63 SW6       30.18S
OAKES            N/A     64  57  77 NW6       30.15S
STANLEY        FAIR      64  57  77 CALM      30.17S
$$

CITY           SKY/WX    TMP DP  RH WIND       PRES   REMARKS
GRAND FORKS    MOSUNNY   69  55  60 W13       30.06S
GRAND FORKS AF SUNNY     69  55  60 NW12      30.07S
DEVILS LAKE    PTSUNNY   66  50  55 NW15      30.11S
FARGO          SUNNY     68  55  63 W15       30.10R
CAVALIER       FAIR      66  54  63 W9        30.05S
GRAFTON        FAIR      66  54  63 W14G20    30.06S
GWINNER        FAIR      72  54  53 W7        30.14S
LANGDON        FAIR      64  54  68 W12       30.10S
ROLLA          FAIR      66  52  59 NW12      30.13S
WALHALLA       FAIR      68  54  60 MISG      30.06R
$$

CITY           SKY/WX    TMP DP  RH WIND       PRES   REMARKS
ABERDEEN       SUNNY     66  58  75 SW6       30.16S
MOBRIDGE       SUNNY     68  61  78 CALM      30.16F
BUFFALO          N/A     64  50  60 CALM      30.18S
RAPID CITY     SUNNY     66  51  58 N10       30.23R
GLASGOW        SUNNY     67  49  52 SE8       30.17S
SIDNEY         SUNNY     61  52  72 S7        30.17S
WOLF POINT     SUNNY     62  50  64 W3        30.18S
GLENDIVE       SUNNY     64  52  63 S6        30.21R
MILES CITY     SUNNY     66  47  50 SE8       30.19S
BAKER          SUNNY     71  49  45 CALM      30.23S
$$

CITY           SKY/WX    TMP DP  RH WIND       PRES   REMARKS
BILLINGS       SUNNY     61  43  51 SW8       30.24S
GREAT FALLS    SUNNY     66  43  43 SW12      30.21R
REGINA         MOSUNNY   63  54  72 NW5       30.18S
$$




USA.gov is the U.S. government's official web portal to all federal, state and local government web resources and services.